Weather Roundup
Issued by NWS Springfield, MO

Home | Current Version | Previous Version | Text Only | Print | Product List | Glossary On
Versions: 1 2 3 4 5 6 7 8 9 10 11 12 13 14 15 16 17 18 19 20 21 22 23 24 25 26 27 28 29 30 31 32 33 34 35 36 37 38 39 40 41 42 43 44 45 46 47 48 49 50
400
NZUS99 KSGF 192107
HRRSGF

HOURLY WEATHER
NATIONAL WEATHER SERVICE SPRINGFIELD MO
400 PM CDT THU APR 19 2018

......SGF CWA......

CITY           SKY/WX    TMP DP  RH WIND       PRES   REMARKS
SPRINGFIELD    FAIR      56  33  42 N15G21    30.36F
JOPLIN         FAIR      55  33  43 E8G18     30.39F
WEST PLAINS    FAIR      54  29  38 N9G20     30.36F
ROLLA          FAIR      54  31  41 N9        30.39F
OSAGE BEACH    FAIR      55  30  38 N7        30.41F
BRANSON        MOSUNNY   55  28  35 NW12G17   30.36F

......SURROUNDING SGF CWA......

CITY           SKY/WX    TMP DP  RH WIND       PRES   REMARKS
CHANUTE        FAIR      59  29  31 NE14      30.38F
PARSONS        FAIR      59  28  30 NE9       30.39F
COFFEYVILLE    FAIR      58  29  33 NE12G21   30.38F
EMPORIA        FAIR      57  29  34 E14       30.37F
GROVE OK       FAIR      59  30  33 N7        30.37F
ROGERS AR      FAIR      54  32  43 NE14G20   30.36F
SILOAM SPRINGS FAIR      57  33  40 NE7       30.35F
HARRISON AR    FAIR      56  29  35 VRB3      30.34F
NEAR YELLVILLE FAIR      57  29  34 NW10G18   30.36F

......KANSAS AND MISSOURI......

CITY           SKY/WX    TMP DP  RH WIND       PRES   REMARKS
KANSAS CTY INT FAIR      59  30  33 NE9       30.41F
DOWNTOWN KC    FAIR      59  30  33 NE10G20   30.40F
COLUMBIA       FAIR      55  30  38 E6G18     30.41F
SEDALIA        FAIR      55  32  41 NE8       30.43
ST JOSEPH      FAIR      59  31  34 E7        30.42F
ST LOUIS       FAIR      54  32  43 VRB3G21   30.41F
SPIRIT OF STL  FAIR      55  33  43 NE5       30.41F
KIRKSVILLE     FAIR      56  30  37 NE8       30.44F
WICHITA        FAIR      60  28  29 E8G17     30.37F
TOPEKA         FAIR      59  31  34 VRB5      30.40F
OLATHE         FAIR      56  30  37 N6        30.41F

......TENNESSEE......

CITY           SKY/WX    TMP DP  RH WIND       PRES   REMARKS
MEMPHIS        FAIR      55  32  41 N18       30.32F
NASHVILLE      PTSUNNY   52  30  43 NE12G22   30.31F

......ARKANSAS.......

CITY           SKY/WX    TMP DP  RH WIND       PRES   REMARKS
FAYETTEVILLE   FAIR      56  31  38 N8        30.34F
FT SMITH       FAIR      64  35  34 N14       30.32F
LITTLE ROCK    PTSUNNY   61  33  35 VRB7      30.32F

......OKLAHOMA.......

CITY           SKY/WX    TMP DP  RH WIND       PRES   REMARKS
TULSA          PTSUNNY   61  33  35 NE8       30.35F
PONCA CITY     FAIR      63  31  30 NE13G18   30.36F
MCALESTER      FAIR      63  38  39 N8        30.34F
OKLAHOMA CITY  FAIR      63  28  26 N10G18    30.34F

......IOWA............

CITY           SKY/WX    TMP DP  RH WIND       PRES   REMARKS
DES MOINES     FAIR      53  23  31 E7        30.45F
QUAD CITIES    FAIR      54  26  34 N9        30.42F

......ILLINOIS........

CITY           SKY/WX    TMP DP  RH WIND       PRES   REMARKS
QUINCY         FAIR      57  31  37 N12G24    30.41F
CHICAGO        FAIR      54  22  28 N13       30.37R





USA.gov is the U.S. government's official web portal to all federal, state and local government web resources and services.